カタログに戻る

KUIPER-00282

運用中通信LEO
NORAD 69267·PAYLOAD·🇺🇸 United States

打ち上げ May 29, 2026 から Vandenberg Space Force Base

Loading…

次のパス (今後24時間)

TLE

最新Source: CelesTrak SupGP

元期: Sep 14, 2026, 20:20 UTC

1 69267C 26118A   26257.84732639  .00005286  00000+0  69187-3 0  2573
2 69267  51.8978   4.1651 0000396 154.7146 180.1741 14.79932552    13

AllMySatでKUIPER-00282をリアルタイム追跡

Download on the App Store